Theta_e
326 325 322 319 317 315 314 315 315 315 315 312 313 315 314 311 307 306 307 306 306 307 307 307 307 307 307 307 307 307 307 307 307 307 307 307 307 307 307 307 307 307 308 308 308 308 308 308 308 308 308 308 309 309 310 311 311 312 312 312 312 312 312 312 312 311 310 309 309 308 306 305 304 304 303 303 303 302 301 301 301 302 303 304 305
326 325 323 319 316 315 315 316 315 315 316 314 314 315 316 314 309 307 308 308 308 307 307 308 307 308 308 308 308 308 308 308 308 308 308 308 309 309 308 308 308 307 307 307 307 307 307 307 308 307 307 307 307 308 308 309 310 311 311 312 312 312 312 312 312 311 311 311 311 309 308 307 305 304 303 303 302 302 301 300 300 300 300 301 303
325 324 322 319 316 315 316 317 315 314 316 316 315 315 317 317 313 310 309 310 310 309 308 309 309 310 311 311 311 310 310 310 310 311 312 313 313 313 313 313 312 312 311 310 309 308 308 308 309 309 308 307 307 307 308 308 309 309 310 311 311 311 311 311 311 311 311 311 310 310 309 308 306 304 303 302 301 301 301 300 300 300 299 299 300
323 323 321 319 317 316 317 318 315 314 315 317 316 316 316 317 317 314 312 312 314 313 312 311 311 312 313 314 313 313 313 312 312 313 315 315 316 316 316 316 316 316 315 314 314 313 312 312 312 312 311 310 309 308 308 308 309 309 309 309 310 310 311 311 311 311 311 311 310 310 309 307 306 305 304 302 302 301 301 300 300 300 299 299 299
323 323 321 319 318 316 317 318 316 315 316 317 317 316 316 317 318 317 315 314 315 315 315 314 313 313 314 315 315 315 315 315 314 315 316 316 316 316 316 316 316 316 317 317 316 316 316 316 315 315 315 315 313 311 310 310 310 309 308 309 309 310 310 310 311 311 311 311 310 309 308 307 306 305 305 304 303 302 302 301 301 301 301 300 299
323 323 322 321 319 317 316 317 316 315 316 316 317 316 317 317 317 318 317 315 315 315 316 315 314 314 314 314 315 316 316 316 315 316 316 316 316 316 316 316 315 316 316 317 317 317 317 317 316 316 316 317 316 315 314 313 311 311 310 310 309 309 310 310 311 310 311 310 310 309 309 309 308 306 305 305 304 304 303 303 303 303 302 302 301
323 323 323 322 320 319 318 316 316 315 315 316 317 316 316 317 317 318 318 317 316 315 315 316 315 315 315 314 314 316 316 316 316 316 316 316 316 316 317 316 316 315 316 316 317 316 316 316 316 316 316 316 316 316 316 314 313 313 312 312 311 310 310 310 311 310 310 310 310 310 309 309 308 306 304 304 303 303 304 305 305 305 304 303 302
322 322 323 322 321 320 319 318 317 316 316 317 317 316 316 317 318 318 318 317 316 316 316 316 316 315 315 315 314 315 315 316 316 316 316 316 316 317 317 317 316 314 314 315 315 315 315 315 316 316 316 316 316 316 315 315 314 313 313 313 312 311 311 311 311 310 310 310 310 309 309 309 308 306 305 305 304 304 304 304 304 304 304 304 303
321 321 322 322 322 322 321 320 319 317 317 318 318 317 316 317 317 317 317 317 317 317 316 317 316 315 314 314 314 313 314 315 316 316 317 317 317 317 317 317 316 314 313 314 315 315 316 316 316 316 316 316 315 315 315 314 313 313 313 313 312 311 311 311 311 311 310 310 310 309 309 308 308 307 307 307 306 306 304 303 302 303 303 303 303
320 320 321 321 322 322 322 321 320 319 319 318 318 318 318 317 317 316 316 317 317 317 316 315 315 315 315 313 313 313 314 315 316 317 317 317 317 317 317 317 316 315 314 315 315 315 316 316 316 316 316 316 315 314 313 313 312 312 311 311 311 311 311 310 310 310 310 310 309 309 309 308 308 307 307 306 306 305 304 303 303 302 302 302 303
319 320 319 320 320 320 320 320 319 319 319 318 318 319 317 317 317 316 316 316 317 317 316 315 314 314 314 312 312 314 315 315 316 317 318 318 317 316 316 315 315 315 315 315 315 315 316 317 317 317 317 317 316 315 313 312 311 310 310 309 309 309 310 309 309 309 309 309 309 308 308 307 307 306 306 305 305 304 304 303 302 301 300 300 301
317 318 318 319 319 319 319 319 319 319 319 319 318 318 317 317 317 317 316 317 317 317 316 315 314 313 313 313 314 315 314 315 316 317 317 316 315 315 314 314 314 313 312 312 312 312 312 314 316 317 318 317 317 317 314 311 310 309 308 308 308 309 309 309 309 309 308 308 308 308 307 307 306 305 305 304 303 303 302 302 301 300 299 298 298
312 314 315 317 318 318 318 318 318 319 319 318 317 317 317 317 317 317 317 317 317 316 315 315 315 314 314 315 315 314 315 315 316 317 316 315 314 314 313 311 309 307 306 305 305 306 307 308 310 314 317 318 318 317 315 311 309 309 308 308 308 309 309 308 308 307 307 307 307 307 306 305 304 304 303 303 302 302 301 301 300 299 298 297 297
310 312 313 315 317 317 317 317 318 318 319 318 316 316 317 318 317 317 317 317 316 315 315 315 315 315 315 315 315 315 315 316 316 315 314 312 310 309 307 305 303 302 302 302 303 304 306 308 310 313 315 317 317 316 314 311 309 308 307 308 308 308 307 307 307 306 305 306 307 306 305 304 303 303 302 302 301 301 300 300 300 299 297 296 296
309 310 311 313 315 315 316 316 318 318 318 317 316 317 317 318 317 317 317 316 316 315 315 315 315 315 316 316 316 316 315 315 314 311 309 307 306 305 304 303 303 302 303 302 303 303 304 306 309 312 314 315 315 314 312 309 308 307 307 307 308 308 307 307 306 305 305 305 306 305 305 304 303 302 301 301 301 300 300 299 298 297 296 295 295
307 308 308 309 311 314 315 316 317 317 317 316 316 317 318 317 317 317 316 315 315 315 315 315 315 315 315 315 315 315 314 312 309 307 305 305 304 304 303 303 303 303 302 302 302 302 302 303 305 309 312 314 313 311 308 307 307 307 307 307 308 308 307 306 304 304 304 304 304 304 304 304 302 301 300 300 300 300 299 298 296 295 294 294 295
306 307 308 309 310 312 314 314 315 316 315 315 316 317 317 317 317 316 316 315 314 314 313 314 314 315 314 314 313 312 310 307 306 306 306 306 305 304 304 303 303 303 303 302 302 302 302 302 303 306 310 312 312 309 308 307 307 306 307 307 307 307 305 304 303 303 304 304 304 304 303 302 301 300 300 300 299 298 297 296 295 294 294 294 294
305 306 307 308 309 310 311 312 312 313 314 315 316 317 316 316 315 315 315 314 313 313 313 314 314 314 313 311 309 307 306 306 307 308 308 307 306 305 305 305 305 304 304 304 303 302 302 302 303 305 308 310 310 309 308 307 307 306 307 306 306 304 303 303 303 303 303 303 303 302 301 300 300 299 299 298 297 296 295 294 294 294 294 294 294
305 305 305 306 307 307 308 309 309 309 310 310 312 313 312 312 313 313 313 313 313 313 313 313 312 311 309 307 306 307 308 308 309 309 308 307 307 307 307 307 307 307 306 305 305 304 303 304 304 306 307 308 308 308 308 307 306 306 305 305 303 303 303 303 303 302 302 302 301 301 300 299 298 298 297 296 295 295 294 294 294 294 293 293 293
304 305 305 305 305 306 306 307 308 307 307 308 308 308 308 309 310 309 310 310 311 311 311 310 310 309 307 306 307 307 307 307 307 307 307 307 307 307 308 308 308 307 306 305 305 305 304 305 305 306 306 306 307 306 306 305 305 305 304 303 303 303 302 302 301 301 301 300 300 299 298 297 296 296 296 295 295 294 294 294 293 293 293 292 292
305 305 305 305 305 305 305 306 307 307 307 307 307 307 306 306 306 306 306 306 307 308 308 307 307 306 305 304 304 304 304 303 303 303 303 303 304 306 307 307 306 305 304 304 305 305 305 305 305 306 306 305 305 305 305 305 305 304 303 303 302 302 301 302 302 301 300 299 298 297 297 296 296 295 295 294 294 294 293 294 293 293 292 291 291
304 305 305 305 305 305 305 305 306 306 307 307 307 307 306 305 305 304 304 304 305 305 305 304 304 303 303 303 302 302 302 302 302 302 302 302 304 306 306 305 303 302 302 304 305 305 305 304 304 304 305 305 305 304 304 304 303 303 303 302 302 302 301 301 301 299 298 297 297 296 296 295 295 294 294 294 294 294 293 293 293 292 292 291 291
302 303 304 305 305 305 305 305 305 305 306 307 307 307 307 307 306 306 305 305 305 304 303 303 303 303 303 303 303 303 303 302 302 302 302 303 305 305 304 303 302 301 302 304 305 305 305 304 304 304 304 304 304 303 303 303 303 302 302 302 301 300 299 298 298 297 296 296 295 295 294 294 294 293 294 293 293 293 293 293 293 293 292 292 292
300 301 302 303 304 305 305 305 305 304 305 305 306 307 307 307 307 307 306 306 306 306 305 305 304 304 304 304 304 303 303 302 302 302 302 304 305 305 303 303 303 302 302 303 305 305 304 304 303 303 303 303 302 302 302 302 301 301 300 299 298 297 296 296 296 295 295 294 294 294 294 293 293 293 293 293 293 293 293 293 293 292 292 292 292
299 300 301 301 302 303 303 304 305 305 304 304 305 305 305 305 305 306 306 306 306 306 306 306 305 306 306 305 304 303 303 302 302 302 304 305 305 304 303 303 303 303 303 304 304 304 303 303 302 301 301 300 300 299 298 297 297 296 296 296 296 295 295 295 294 294 293 293 293 293 293 294 293 293 293 293 293 293 293 292 292 292 291 291 291
298 298 299 300 301 301 302 302 303 304 305 305 304 304 304 304 304 304 305 306 306 306 306 307 306 306 306 305 304 302 302 302 302 303 305 306 305 304 303 303 303 303 303 304 304 303 301 300 299 298 297 296 296 295 295 295 295 295 295 295 295 295 294 293 293 293 293 293 294 294 294 294 294 293 293 292 292 292 291 291 291 291 291 290 290
297 297 298 299 300 301 301 302 302 302 304 305 305 304 304 304 304 304 304 304 305 305 306 306 306 305 304 303 302 302 302 302 303 304 305 305 305 304 303 303 302 303 304 304 302 300 299 297 296 295 294 295 295 295 295 295 295 295 295 294 294 293 293 293 293 293 294 294 294 294 294 293 293 292 292 291 291 291 291 291 291 290 290 290 290
297 297 297 298 299 300 300 301 301 302 302 303 303 303 303 304 304 305 305 304 304 304 305 305 304 304 303 303 302 302 302 303 304 305 305 304 303 303 303 303 303 303 304 302 300 298 296 295 295 295 295 295 295 295 295 295 295 294 294 293 293 293 293 294 294 294 293 293 293 293 293 292 292 291 291 291 291 291 291 291 290 290 290 290 290
297 297 297 297 297 298 299 300 300 301 302 302 301 302 302 303 303 303 303 304 303 303 303 303 303 303 303 302 302 302 303 303 304 304 303 303 303 303 303 303 303 303 302 300 297 296 295 295 295 295 295 295 295 295 295 294 294 293 293 293 294 294 294 294 294 293 293 293 293 293 292 292 291 291 291 291 291 291 291 291 291 290 290 290 290
296 297 297 297 297 297 298 299 299 300 301 301 302 302 302 302 302 302 302 303 303 303 303 303 303 303 302 302 302 302 302 302 302 302 302 302 303 303 303 303 303 302 300 297 296 295 295 295 295 295 295 295 295 294 294 293 293 293 294 294 294 294 293 293 293 293 293 293 292 292 291 291 291 290 290 291 291 291 291 291 290 290 290 290 290
294 296 296 297 297 297 297 298 298 299 299 300 301 301 302 302 302 302 303 303 302 302 302 302 302 302 301 301 301 301 302 302 301 301 301 302 303 303 303 303 301 299 297 296 295 295 295 295 295 295 295 295 294 294 293 293 293 294 294 294 293 293 293 293 293 293 293 292 292 291 291 290 290 290 290 290 290 291 291 291 291 291 290 290 290
293 294 295 296 297 297 297 297 298 298 298 299 300 300 300 301 302 303 303 303 303 302 302 302 302 301 301 301 302 302 301 301 300 300 301 302 303 303 302 300 298 296 295 295 295 294 295 295 295 295 295 294 293 293 293 293 294 294 294 293 293 292 292 292 292 292 292 291 291 291 290 290 290 290 290 290 290 290 291 291 291 291 291 290 290
293 293 294 295 296 296 297 297 298 298 298 298 298 299 299 300 301 301 301 302 302 302 302 302 302 302 302 302 302 301 301 300 299 300 302 303 303 302 300 297 296 295 295 295 294 294 295 295 295 295 294 293 293 293 294 294 294 293 293 292 292 291 291 292 292 292 291 291 290 290 290 290 290 290 290 290 290 291 291 291 291 291 291 291 291
293 293 293 294 295 296 296 297 297 298 298 298 298 298 299 299 300 300 300 300 301 301 302 302 302 302 302 302 301 300 300 300 300 301 302 302 302 300 298 296 295 295 295 295 295 295 295 295 294 293 293 292 293 294 294 294 293 293 292 291 291 290 291 292 292 291 291 290 290 290 290 290 290 290 290 291 291 291 291 291 291 291 291 291 291
293 293 294 293 294 295 296 296 297 297 298 298 298 298 298 298 299 300 300 300 300 301 301 301 301 301 302 302 301 300 300 300 301 302 302 301 300 299 297 296 295 295 295 295 296 296 295 294 293 292 292 293 294 294 294 293 293 292 292 291 290 290 291 291 292 291 291 290 290 290 290 290 291 291 291 291 291 291 291 291 291 291 291 291 291
294 294 294 294 293 294 295 296 297 297 297 297 297 298 298 298 298 299 299 300 300 300 300 301 301 301 301 301 301 301 302 302 302 302 301 300 299 298 297 296 295 295 296 296 296 296 294 293 292 292 293 293 294 294 294 293 292 292 291 290 290 290 291 291 292 291 291 290 290 290 290 291 291 291 291 291 290 291 291 291 291 291 291 291 291
295 294 294 294 294 294 294 295 296 297 297 297 297 297 298 299 299 299 299 299 299 299 300 301 301 300 300 300 301 302 302 302 302 300 299 298 297 297 296 295 295 296 296 296 295 294 293 292 292 293 293 294 294 294 293 292 292 291 290 290 289 290 291 291 291 291 291 291 290 290 290 290 290 291 290 290 290 290 291 291 291 291 292 292 292
295 294 294 294 294 294 294 294 294 295 297 297 297 297 298 299 300 300 299 299 300 300 300 300 300 300 300 300 301 302 302 301 300 298 297 297 296 295 295 296 296 296 295 295 294 293 292 292 293 293 293 293 293 293 292 292 291 291 290 290 289 290 291 291 291 291 291 290 290 290 290 290 290 290 290 290 290 290 291 291 291 291 292 292 292
295 295 295 294 294 294 294 294 294 294 295 296 297 297 297 297 299 299 299 299 299 300 301 301 300 300 300 300 301 301 301 300 299 297 297 296 295 295 296 296 295 295 294 294 293 292 292 292 293 293 293 293 293 292 292 291 291 291 290 289 289 290 291 291 291 291 290 290 290 290 290 290 290 290 290 290 290 290 291 291 291 291 292 292 292
297 296 296 295 295 295 295 295 294 294 294 295 296 296 296 296 297 298 299 299 299 300 301 301 300 300 300 300 300 300 300 299 298 297 296 296 296 296 296 295 294 293 293 291 291 291 292 293 293 292 293 293 292 291 291 291 291 291 290 289 289 290 291 291 291 291 290 290 290 290 290 290 290 290 290 290 290 290 290 291 291 292 292 292 292
298 298 297 296 296 296 296 296 295 294 294 295 295 296 296 296 296 297 298 298 299 300 300 300 300 300 300 300 300 299 299 298 296 296 296 296 296 295 294 293 293 292 290 290 291 292 293 293 292 292 292 292 291 291 291 291 291 291 290 289 289 289 290 291 291 290 290 290 290 290 290 290 290 290 290 290 290 290 290 291 291 292 292 292 293
299 298 297 296 296 296 296 297 296 295 294 295 295 296 296 295 296 297 298 299 299 300 300 300 300 300 300 299 298 297 297 296 296 296 296 295 295 294 294 294 293 291 290 290 292 292 292 292 292 292 292 292 291 291 291 291 291 290 290 289 289 289 290 291 291 290 290 289 289 289 289 290 290 290 290 290 290 290 290 291 291 292 292 293 293
298 297 296 296 296 296 296 297 296 295 294 294 294 295 295 296 297 298 299 299 299 300 300 300 300 299 298 297 296 296 296 296 296 296 295 294 294 293 293 293 292 290 289 290 291 292 292 292 292 292 292 291 291 290 290 290 290 290 289 289 289 289 290 290 290 290 290 289 289 289 289 290 290 290 290 290 290 290 290 291 291 292 292 293 293
297 296 296 296 296 296 296 296 295 295 295 294 295 295 296 296 298 299 299 298 298 298 300 300 299 297 296 295 295 295 296 296 295 294 294 293 294 294 293 293 292 290 289 289 290 291 291 292 292 292 292 291 290 290 289 289 289 289 289 289 289 289 290 290 290 290 290 289 289 289 289 289 290 290 289 290 289 290 290 291 291 291 292 292 293
297 297 296 296 296 296 296 296 296 297 296 296 296 296 296 297 298 299 298 296 296 297 299 299 297 295 295 295 296 296 296 295 294 294 294 293 294 294 293 292 292 290 289 289 290 291 291 292 292 292 291 290 289 289 289 288 288 289 289 289 288 289 290 290 290 290 290 289 289 289 289 289 289 289 289 289 289 289 290 290 291 291 292 292 293
298 297 297 296 296 296 297 297 298 298 298 297 297 296 296 297 298 298 296 296 296 296 297 296 295 295 296 296 296 296 295 294 294 294 294 294 294 293 293 292 292 291 289 289 290 291 292 292 292 291 291 290 289 288 288 288 288 288 288 288 288 289 289 290 290 290 290 290 289 289 289 289 289 289 289 289 289 289 290 290 290 291 291 292 293
297 297 297 297 297 297 297 297 297 298 298 298 298 297 297 297 297 296 296 295 295 295 295 295 296 296 296 296 296 295 295 295 294 294 294 294 294 293 293 292 292 291 289 288 289 291 292 292 291 291 290 289 288 288 288 288 288 288 288 287 287 288 289 290 290 290 290 290 289 289 289 289 289 289 289 289 289 289 289 290 290 290 291 292 292
296 296 296 296 296 296 296 296 297 297 297 297 297 297 296 296 295 295 295 295 295 295 296 296 296 296 295 295 295 295 294 294 294 294 294 294 293 293 292 292 291 291 289 288 289 291 292 291 291 290 289 288 288 288 288 288 288 288 287 287 287 288 289 289 289 290 290 290 289 289 289 289 289 289 289 289 289 289 289 290 290 290 290 291 292
296 296 296 296 296 296 296 296 296 296 295 295 295 295 295 295 295 295 295 295 296 296 296 296 295 295 295 295 295 294 294 294 293 293 293 293 292 292 292 291 291 291 289 288 289 291 291 290 290 289 288 288 288 288 288 288 288 288 287 287 287 287 288 289 289 289 289 290 289 289 289 289 289 289 289 289 289 289 289 289 290 290 290 291 292
296 296 296 296 296 296 296 296 296 296 295 295 295 295 295 295 295 295 296 296 296 296 296 296 296 296 295 295 294 294 293 293 293 293 293 292 292 291 291 292 291 290 289 288 288 290 290 289 288 288 288 288 288 288 288 288 288 288 288 287 287 286 287 288 289 289 289 289 289 289 289 289 289 289 289 289 289 289 289 289 290 290 290 291 292
297 297 297 297 296 296 297 297 296 296 296 296 296 296 296 296 296 296 296 296 296 296 296 296 295 295 294 294 293 293 293 293 292 292 292 291 291 291 291 292 292 291 289 288 288 288 288 288 287 287 287 287 287 287 288 288 288 288 288 288 287 286 286 288 289 289 289 289 289 289 289 289 289 289 289 289 289 289 289 289 289 290 290 291 291
Wind_Speed
26 28 33 31 23 23 24 22 25 24 20 20 17 13 13 13 13 13 11 11 10 9 9 8 8 8 7 7 7 7 7 7 8 8 8 7 6 5 5 5 5 5 5 4 4 4 3 3 3 2 2 2 2 3 4 4 4 4 5 6 7 8 10 11 12 12 13 14 15 16 16 15 15 14 14 13 12 12 12 11 9 8 8 8 7
22 25 30 30 22 23 20 17 25 30 23 21 20 16 16 14 15 15 12 11 11 10 10 8 7 7 6 6 6 5 5 5 5 6 6 5 4 3 3 2 2 2 3 2 2 2 2 2 2 1 1 1 1 1 2 2 3 3 4 4 6 7 8 10 11 11 11 12 14 16 16 16 16 16 16 15 15 14 14 13 11 10 9 8 8
18 21 28 30 23 23 22 17 23 32 28 23 22 20 19 18 17 18 15 13 12 11 11 10 9 9 7 7 6 6 6 5 4 4 4 3 2 1 1 1 1 2 2 2 2 2 2 2 2 2 2 2 2 2 2 3 3 4 4 4 5 6 7 9 10 10 11 12 13 14 16 16 17 17 17 17 16 15 14 13 13 13 12 11 10
16 19 26 30 24 23 24 18 22 32 30 24 23 23 22 21 21 21 20 18 16 15 14 13 12 11 10 9 8 8 8 7 5 4 3 2 1 1 1 2 1 0 1 1 2 2 3 4 4 4 4 4 4 3 3 4 4 5 5 5 6 6 7 9 10 11 12 13 13 14 15 16 17 17 17 17 16 16 16 15 14 13 13 13 12
15 18 24 29 27 26 27 23 23 30 28 22 23 26 27 25 24 25 25 23 21 19 18 15 14 13 12 10 9 8 7 6 4 3 4 4 3 2 2 4 5 4 3 2 2 3 4 5 5 6 6 5 5 5 4 5 6 6 6 7 7 7 8 9 10 11 12 12 13 14 15 16 17 18 18 17 18 18 17 16 15 14 13 13 14
16 19 22 26 28 31 32 28 26 29 29 26 27 30 30 28 25 26 27 27 25 24 23 21 18 16 14 12 10 8 7 5 3 4 6 7 7 6 5 6 7 8 7 6 5 5 5 6 7 8 7 7 6 6 6 6 6 7 7 7 8 8 8 9 11 12 13 13 13 14 15 16 17 18 18 19 19 20 20 19 17 16 16 16 17
14 16 19 23 28 31 34 33 31 31 32 31 30 30 30 29 27 24 26 29 29 28 27 25 22 19 16 14 13 11 10 10 9 7 8 9 10 11 11 9 9 10 10 10 9 9 9 9 10 11 10 9 9 8 8 8 8 8 8 8 8 8 8 9 11 13 13 14 14 15 16 17 18 18 19 19 19 20 21 21 20 20 20 21 22
10 13 16 20 25 29 32 34 34 34 33 30 29 29 30 28 26 24 26 30 32 31 30 28 25 21 16 13 15 16 14 13 12 11 11 13 15 16 15 13 12 12 11 11 11 12 12 12 13 13 13 13 12 12 12 11 10 9 9 9 9 9 9 10 11 12 14 15 16 16 17 18 18 18 18 19 20 20 21 22 22 23 23 23 24
6 10 13 17 21 23 26 29 31 33 32 28 26 28 31 30 25 23 25 29 31 31 30 28 25 22 17 14 16 17 13 10 12 13 13 15 17 18 17 16 16 15 13 12 13 13 14 14 14 15 15 16 16 16 16 15 13 11 11 11 11 10 11 11 11 12 14 15 16 17 18 18 19 18 18 19 20 21 22 23 23 24 24 24 24
6 6 8 11 14 17 20 22 25 28 30 28 26 26 30 31 28 24 25 28 30 31 28 25 25 27 27 20 15 14 12 11 14 16 17 18 18 18 18 18 18 17 15 15 15 15 15 15 15 15 15 17 18 20 20 19 17 14 14 14 13 13 13 13 13 13 14 16 18 19 19 19 20 21 20 20 21 21 23 24 26 27 27 26 25
8 7 6 7 9 13 16 17 18 20 23 24 24 25 25 25 24 23 24 27 28 28 26 22 20 25 26 20 16 15 15 16 16 18 19 19 19 19 18 17 16 15 15 16 16 15 15 15 15 15 16 16 18 20 22 22 20 17 16 16 15 14 15 15 15 15 15 16 19 21 22 22 23 23 23 23 23 24 25 27 29 30 31 31 31
6 8 8 8 10 12 13 14 15 18 21 21 21 21 20 19 20 21 22 25 25 23 21 18 17 21 22 21 20 19 17 17 18 19 18 17 17 17 16 15 15 15 15 15 15 16 16 16 16 16 16 16 17 19 22 23 21 19 18 17 16 16 16 17 17 17 16 17 20 23 24 24 24 24 24 25 26 26 28 30 31 32 33 34 35
3 6 8 9 11 12 12 14 16 19 20 19 18 18 19 20 21 21 20 22 23 21 18 16 18 20 21 21 22 20 18 19 19 16 15 15 15 16 16 16 16 15 14 14 13 14 14 15 16 16 15 15 16 16 19 22 22 21 19 18 17 17 17 17 18 17 16 17 21 23 24 25 25 25 26 27 27 28 30 31 33 34 35 36 36
0 2 4 7 10 13 13 15 18 19 18 18 16 16 18 22 22 20 19 20 21 18 15 15 17 18 19 18 18 18 18 17 15 12 12 13 14 14 14 13 11 11 10 10 10 10 10 11 12 13 13 14 13 12 14 19 22 21 20 19 18 18 17 18 19 18 18 19 22 24 26 26 27 27 27 28 29 30 31 33 34 35 37 37 37
3 3 3 5 7 11 13 14 16 17 18 18 16 15 18 21 20 18 18 18 17 16 15 15 16 17 17 16 15 14 13 13 11 10 10 10 9 9 8 8 9 9 9 9 9 9 9 9 9 9 9 10 8 8 11 17 20 20 20 20 19 18 18 19 19 18 19 20 22 25 27 28 28 28 28 28 30 31 33 34 35 36 37 37 37
4 4 4 5 6 8 10 13 15 17 18 18 17 17 19 20 18 16 16 15 15 15 15 16 16 16 16 14 13 12 11 10 10 9 7 6 6 7 7 8 8 9 9 10 10 10 10 9 8 6 6 6 5 6 11 16 18 19 19 19 19 19 19 19 18 19 20 20 22 25 28 28 28 28 28 29 31 32 34 35 35 35 37 38 38
4 4 4 4 5 5 5 7 11 14 17 17 18 18 18 17 16 16 16 17 17 16 16 17 17 16 15 14 12 11 9 8 7 5 4 5 7 8 8 8 9 9 9 9 9 10 10 9 8 6 5 5 5 8 13 16 17 18 18 18 19 19 19 18 19 20 21 22 24 27 28 27 27 27 28 30 31 33 34 35 34 35 36 37 39
3 4 4 5 5 5 5 4 4 6 8 10 12 14 14 15 15 16 17 17 18 17 17 18 17 15 14 12 11 9 7 6 4 4 5 7 9 10 10 11 11 11 11 11 10 10 10 9 8 7 6 5 6 9 13 15 16 17 17 18 18 18 18 19 20 22 22 23 25 27 27 27 27 28 29 30 31 32 33 34 34 34 35 35 37
2 2 4 4 4 5 5 5 5 6 6 7 9 11 12 13 14 15 16 17 17 18 17 16 16 14 13 11 9 7 5 4 4 5 7 9 10 11 11 12 13 13 13 13 12 12 10 9 8 7 7 7 7 9 12 14 15 16 16 17 17 18 19 20 21 22 22 23 25 26 26 27 28 29 30 31 31 31 32 32 32 33 33 33 33
5 5 5 5 5 6 6 6 8 8 6 5 7 9 10 12 14 14 15 16 16 16 16 16 15 14 12 10 7 5 5 5 6 7 9 11 12 12 12 13 13 13 14 13 12 11 10 9 8 8 8 8 9 11 12 13 14 15 16 16 18 19 20 20 21 22 24 25 26 27 28 29 30 31 31 31 31 31 32 32 32 31 31 31 31
11 11 9 7 6 8 9 8 8 10 10 9 9 9 11 13 14 13 13 13 15 16 16 16 15 12 10 8 6 4 4 6 8 10 12 13 13 13 13 13 14 14 14 13 11 10 9 9 9 9 10 10 11 12 13 14 15 16 17 17 18 19 20 22 24 26 27 28 29 30 30 31 31 32 32 32 33 33 33 33 32 31 29 29 30
16 16 15 13 11 10 11 11 10 10 12 13 13 13 14 14 13 12 11 12 14 15 15 15 13 11 9 7 5 5 6 9 11 13 14 13 13 12 12 13 13 13 13 12 11 10 10 10 10 10 10 10 11 12 13 15 16 18 18 19 20 21 23 25 27 28 29 30 30 30 31 31 32 33 34 34 35 34 34 33 32 30 29 29 29
19 20 20 20 19 15 14 14 13 13 13 14 15 16 16 15 13 12 11 12 13 13 13 13 12 10 9 8 7 8 9 11 13 14 13 12 11 11 11 11 12 12 12 12 11 10 10 10 10 10 10 10 11 12 13 15 17 18 19 21 22 24 25 26 27 28 29 29 30 30 31 32 34 34 35 35 34 34 34 34 33 32 31 30 29
23 22 22 23 23 22 19 17 17 16 15 16 17 17 17 16 16 15 15 14 14 14 13 13 12 12 11 10 10 10 11 12 12 12 11 11 11 11 11 11 11 12 12 12 11 11 11 11 11 11 11 12 13 14 15 16 18 19 20 21 23 24 24 25 26 27 28 29 30 31 32 32 33 34 34 34 35 35 34 34 33 31 30 30 29
26 25 24 24 24 24 24 23 22 20 18 17 17 18 17 15 15 16 17 18 17 16 16 16 16 15 14 13 12 12 13 12 11 10 11 11 12 11 11 11 12 12 13 12 11 11 11 11 11 11 12 13 14 15 16 17 17 18 19 20 21 22 23 24 25 27 28 29 30 31 31 31 32 33 33 34 33 32 31 30 29 28 27 28 28
30 28 27 25 25 25 25 25 25 25 24 22 20 19 19 17 16 16 17 19 20 20 20 19 18 17 16 14 14 14 14 13 11 11 11 12 11 11 11 12 13 13 13 12 11 10 11 11 11 11 12 13 13 14 15 15 16 17 18 19 21 22 23 24 25 26 27 28 29 30 30 31 31 31 30 30 29 27 27 27 27 27 26 26 28
31 31 30 27 25 24 24 25 26 27 29 29 27 24 22 21 20 20 19 20 21 22 22 22 21 19 17 15 15 15 14 13 12 11 11 11 11 11 12 12 13 13 12 11 11 10 10 10 11 11 11 12 12 13 13 14 16 17 19 20 21 22 23 23 24 25 26 27 28 29 29 29 29 28 27 26 26 25 25 25 27 27 26 26 28
31 32 31 30 28 24 23 23 25 26 29 31 31 29 27 26 25 25 25 25 24 24 25 24 22 20 17 16 15 14 14 13 11 10 10 10 11 12 13 13 13 13 12 11 11 10 10 10 10 10 11 11 12 13 14 15 17 18 19 20 20 21 21 22 23 23 25 26 27 27 27 27 26 25 25 26 26 25 25 25 26 27 27 27 28
32 32 32 31 31 29 25 23 22 23 26 29 30 31 30 29 27 25 25 25 24 23 23 23 21 18 17 16 16 15 14 12 11 10 10 11 13 14 15 14 13 12 11 11 10 10 9 9 10 10 11 11 12 13 14 16 17 17 18 18 18 18 19 20 22 23 24 25 26 26 26 26 25 25 26 27 27 26 25 25 26 27 27 27 28
32 33 33 32 31 31 29 27 24 22 21 23 26 29 30 30 28 25 23 24 24 22 21 21 19 18 18 18 17 15 13 11 10 10 11 13 14 14 14 13 12 11 11 11 10 9 9 10 10 11 11 12 13 14 15 15 15 15 15 15 16 17 18 20 22 23 24 25 25 25 25 26 26 26 26 27 27 26 25 25 26 26 27 27 27
33 33 33 32 31 31 30 29 26 23 20 17 18 21 24 28 29 26 23 23 23 21 19 18 17 18 18 17 15 14 12 11 11 11 12 13 13 13 12 12 12 11 11 10 9 9 9 10 10 11 11 12 13 14 14 14 13 13 13 14 15 17 19 21 23 24 24 25 25 25 25 25 25 25 25 26 27 26 25 25 25 25 26 25 26
33 34 33 32 31 30 30 30 27 25 23 21 19 17 18 21 25 27 26 25 25 24 22 20 19 19 18 16 14 13 12 11 11 12 13 13 12 11 11 11 11 10 9 9 8 9 9 9 10 11 12 13 14 13 13 12 11 11 12 14 16 18 20 22 23 24 24 24 24 24 24 23 23 24 25 26 26 26 25 25 25 25 25 25 25
32 33 33 33 32 31 30 31 29 27 25 25 24 22 19 17 18 22 24 24 25 27 26 24 22 20 17 15 14 13 11 11 11 12 12 12 11 11 11 10 10 9 9 8 8 8 9 10 11 12 13 13 12 11 10 9 9 11 13 15 17 19 21 22 23 23 23 22 22 23 22 22 23 24 25 25 25 24 24 24 24 24 24 24 25
30 31 32 32 33 33 32 31 30 28 26 25 25 26 24 20 17 16 15 14 17 22 24 23 21 18 16 15 14 12 11 10 11 12 13 12 11 11 10 10 9 9 8 8 8 9 10 11 11 12 12 11 10 9 8 8 9 12 14 16 18 19 21 23 23 23 22 22 22 22 22 22 23 24 24 24 23 23 24 24 24 23 23 24 24
28 30 30 31 32 35 35 34 32 30 27 25 25 26 26 25 23 20 15 12 15 19 21 19 17 16 15 14 12 11 11 11 11 12 13 12 11 11 10 10 10 9 8 8 9 10 11 11 11 11 10 9 7 7 6 8 10 12 14 16 18 21 23 24 23 23 22 21 21 21 21 22 22 22 23 23 22 23 23 23 23 23 23 23 24
27 28 28 29 30 32 34 35 35 32 29 26 25 24 22 22 24 23 20 18 19 20 20 20 18 16 15 14 13 12 12 12 12 12 12 11 10 10 10 10 9 8 8 9 10 10 10 10 9 8 7 6 5 6 7 9 11 13 15 17 19 22 23 24 23 23 22 21 20 20 21 22 22 22 21 21 21 22 22 22 22 22 22 22 23
26 26 26 25 26 27 30 33 34 34 31 28 25 23 21 19 19 20 21 23 23 21 20 19 17 15 15 15 15 14 13 12 12 12 11 10 10 10 10 9 9 8 9 9 9 9 9 8 7 6 5 4 5 6 7 9 11 13 15 17 20 22 23 23 23 23 23 22 22 21 22 22 22 21 21 21 21 21 22 21 21 21 21 21 21
26 27 26 24 21 21 23 27 30 32 32 30 27 25 24 22 21 20 21 23 24 23 21 18 15 14 15 16 17 16 15 14 14 14 13 11 11 11 10 9 9 9 9 9 8 8 7 6 5 4 3 3 4 6 8 10 12 14 16 18 19 21 22 22 22 23 24 24 23 22 22 22 22 21 21 21 21 21 21 21 20 21 21 21 21
23 25 25 24 22 19 18 19 23 28 31 32 30 28 26 26 25 22 20 21 22 23 20 17 14 14 15 15 16 17 17 16 16 15 14 13 11 10 9 9 9 9 9 8 8 7 6 5 4 2 2 3 5 7 9 11 13 15 16 18 20 21 22 23 24 25 25 24 24 23 23 23 23 22 21 20 21 21 21 20 20 20 20 21 21
18 20 21 21 21 20 18 16 18 22 27 31 32 30 27 27 27 26 24 23 22 22 20 16 14 14 14 14 15 16 16 17 17 15 13 12 11 10 9 8 8 8 8 7 7 6 5 4 3 2 2 4 6 8 10 12 14 15 16 18 19 21 22 23 24 25 24 24 25 24 24 24 23 22 20 20 20 21 21 20 20 19 19 20 20
12 14 17 18 18 18 18 17 16 17 21 28 31 30 29 28 28 29 27 25 24 25 22 17 14 13 13 13 13 13 14 14 15 13 11 10 9 9 9 8 6 6 5 6 6 5 5 4 3 3 3 5 7 9 11 13 14 15 16 17 19 21 22 23 24 24 24 24 25 25 26 25 24 22 21 20 20 21 21 20 19 19 19 19 19
5 4 8 12 13 13 15 15 14 14 18 24 28 28 28 27 28 28 27 27 28 27 22 17 14 14 15 14 13 13 12 12 12 11 10 10 10 9 7 6 5 4 4 5 5 4 3 3 3 4 4 5 8 10 12 13 14 15 16 17 19 21 22 23 23 23 24 24 25 26 27 26 25 23 22 21 21 21 21 20 20 19 18 18 18
8 7 3 3 7 9 11 12 12 12 15 21 25 26 25 25 24 22 21 26 31 28 21 17 18 18 18 17 16 15 13 11 11 11 11 11 10 8 5 4 3 2 3 4 4 3 3 4 5 5 5 6 9 11 13 14 15 16 16 17 18 20 22 23 23 23 24 25 26 27 28 28 26 25 23 22 22 21 21 21 20 19 18 17 17
16 14 12 10 9 8 8 9 9 10 13 17 20 21 21 21 19 15 15 23 31 29 22 19 21 22 21 20 18 16 14 12 12 13 12 11 8 5 3 3 2 2 2 3 2 3 4 5 6 6 5 6 9 11 13 14 15 16 16 16 18 20 21 22 23 24 25 26 27 28 28 28 28 27 25 24 22 21 21 21 20 19 17 17 16
20 18 16 15 14 12 11 10 9 10 11 13 15 17 17 17 16 13 13 19 25 25 22 21 22 23 22 21 18 16 15 14 14 13 12 9 7 4 3 3 3 2 2 2 2 3 4 5 6 4 4 6 8 10 11 13 14 15 16 16 17 19 20 21 22 24 24 25 27 27 28 28 28 28 27 25 23 21 21 21 20 19 17 16 16
19 18 16 15 14 12 11 10 9 9 10 11 12 14 14 14 14 12 12 16 20 22 22 23 22 22 20 19 17 16 14 13 13 12 10 8 7 4 4 4 4 2 1 2 3 4 4 5 4 3 2 4 7 8 10 12 14 14 15 16 17 18 19 20 21 23 24 25 26 27 27 28 28 28 27 25 23 21 21 20 19 18 17 16 15
22 21 19 17 14 12 11 10 9 9 9 10 11 12 12 12 12 13 15 19 21 22 21 20 19 19 18 16 15 14 12 11 10 10 9 7 6 5 5 4 3 2 2 3 4 4 4 4 3 1 2 3 6 8 10 12 13 14 15 15 16 17 18 19 20 22 23 24 25 26 27 27 27 27 27 26 24 22 21 20 19 18 17 16 14
29 28 26 24 22 19 17 15 14 13 11 11 12 13 13 14 16 18 20 22 22 20 18 18 18 18 16 13 12 11 10 10 9 8 7 6 5 5 5 4 2 3 4 4 4 4 4 3 1 1 2 3 5 8 10 12 13 14 14 15 15 15 17 18 19 20 22 23 24 25 25 26 26 26 27 26 24 22 21 21 20 19 18 16 14
28 29 29 28 27 25 23 21 20 20 19 18 18 19 19 20 21 21 22 21 19 18 17 17 17 15 12 11 10 10 9 9 8 7 6 6 5 5 4 3 3 4 4 4 4 4 3 2 1 1 3 4 6 8 10 12 13 13 14 15 14 14 15 16 18 19 21 22 24 24 25 25 25 25 25 26 24 22 21 20 19 18 18 16 14
23 24 25 25 25 24 24 23 23 22 21 21 21 21 21 21 21 20 19 17 16 15 15 14 13 12 11 10 9 9 8 7 6 6 6 5 5 4 5 4 3 4 4 4 4 4 3 2 2 3 4 5 6 8 10 11 12 13 15 16 15 15 14 15 16 17 19 22 24 24 24 24 24 24 24 24 24 22 21 19 18 17 17 15 13
19 19 20 20 20 20 19 19 19 19 18 18 18 18 17 17 16 16 15 14 12 12 11 11 10 10 9 8 7 6 6 5 6 6 6 6 5 5 6 5 4 3 4 4 4 3 3 3 3 4 5 5 6 8 9 10 11 13 15 16 17 16 14 14 15 16 18 20 23 24 24 24 23 23 23 24 23 22 20 19 17 16 15 13 12
Wind_Direction
239 237 232 229 228 215 210 221 222 209 202 212 216 204 202 209 212 213 205 197 195 187 184 179 175 172 162 162 163 156 150 139 133 129 124 123 120 119 121 118 119 117 113 114 114 115 113 107 100 90 86 75 59 52 46 44 36 26 29 33 36 38 35 35 35 28 17 7 1 358 356 355 354 355 357 357 357 358 360 359 355 347 338 330 323
247 244 234 229 219 206 215 234 221 212 211 219 225 221 214 211 211 214 213 203 197 190 188 186 179 174 168 167 166 160 155 145 140 136 132 134 131 126 122 107 97 85 74 66 68 85 85 67 51 37 30 304 322 352 359 10 6 349 348 357 7 17 19 18 19 20 13 4 357 351 348 347 348 351 353 354 355 356 353 351 351 352 349 340 328
247 241 229 223 218 213 225 235 217 215 220 225 233 236 228 221 215 215 215 210 206 199 194 191 185 179 176 180 184 180 176 177 171 157 145 145 141 129 117 76 84 73 55 33 16 14 12 14 12 0 348 327 318 323 333 340 335 320 315 321 338 353 2 1 1 3 2 357 352 347 344 343 344 346 349 350 351 349 348 348 349 350 349 345 337
247 236 224 222 223 223 231 233 212 215 225 231 238 242 237 230 225 221 219 218 218 215 207 199 191 186 184 187 190 190 192 197 202 202 185 178 206 272 316 322 307 307 48 35 9 0 355 350 348 343 340 339 332 326 329 330 323 315 310 313 323 333 343 347 349 352 351 348 345 344 343 342 341 340 341 341 342 343 344 345 344 344 345 344 339
247 237 227 228 230 225 228 232 218 216 224 231 239 244 242 236 233 230 228 224 222 224 222 214 203 198 196 197 199 201 203 199 201 233 232 225 239 259 300 315 307 290 280 296 320 326 336 334 327 323 327 335 335 325 317 316 318 318 316 318 321 323 330 337 342 346 346 345 343 342 341 340 337 335 335 334 334 335 336 337 336 334 335 338 338
246 242 236 235 231 223 224 230 226 220 221 227 237 242 241 239 238 237 235 233 231 228 228 227 222 215 211 212 216 219 221 224 250 263 240 235 248 256 267 291 301 293 278 274 282 288 294 300 301 302 306 314 320 316 309 304 307 313 316 317 317 319 325 331 337 341 342 343 342 339 337 336 334 332 331 331 329 328 327 326 325 325 327 330 332
248 246 242 236 229 226 226 228 227 225 225 231 240 242 240 241 243 240 237 238 237 233 231 232 228 224 227 227 225 230 236 244 263 271 258 254 260 265 269 276 288 291 281 271 269 273 277 277 278 283 287 293 298 299 297 293 291 297 305 312 314 316 321 326 333 339 341 342 340 337 335 334 332 330 329 327 325 322 321 319 319 321 324 327 329
252 249 245 237 232 231 231 231 232 232 232 237 241 240 239 241 244 245 242 240 240 239 236 234 228 226 238 242 235 240 246 248 257 265 268 270 271 272 272 273 282 288 279 269 268 271 274 273 269 269 272 278 283 286 285 282 278 280 287 295 300 304 307 313 323 331 336 339 340 339 337 333 329 326 324 323 322 321 322 322 321 321 321 324 326
270 257 251 245 239 236 236 237 237 236 237 242 244 240 235 235 238 247 249 245 243 240 235 233 229 224 235 254 251 243 240 248 264 275 283 284 280 276 272 274 283 286 278 273 273 273 275 274 270 267 267 270 273 276 278 277 273 272 275 281 283 285 289 293 304 318 327 333 337 337 335 331 326 321 320 321 322 323 324 324 323 322 319 319 320
314 284 262 253 248 244 242 241 241 241 240 241 244 242 235 231 232 239 247 250 251 250 246 244 239 233 237 247 242 224 226 254 276 285 291 291 286 279 277 280 284 284 281 281 282 281 280 277 274 270 266 264 266 270 271 272 273 270 266 270 274 277 280 283 290 304 317 327 334 335 333 330 325 320 319 319 321 324 324 325 325 325 323 319 317
320 312 302 288 272 260 252 247 246 245 239 234 238 238 230 227 231 238 246 251 253 257 260 257 243 231 229 227 218 222 243 263 275 285 288 286 283 280 280 282 283 283 285 286 286 286 284 282 279 274 268 263 261 263 265 265 268 266 261 263 267 272 278 280 283 296 310 323 332 332 328 327 324 320 318 319 321 324 325 327 328 327 327 325 323
297 291 291 290 283 277 268 258 245 233 227 226 230 231 226 227 236 245 250 249 247 252 259 250 226 216 221 228 233 240 251 262 274 282 282 278 278 280 283 286 288 290 291 290 289 288 286 284 282 278 274 267 260 259 259 259 259 258 256 257 263 271 277 279 282 293 306 320 328 326 323 321 319 317 317 318 320 323 325 327 327 326 326 326 325
271 260 262 262 263 265 263 258 250 237 230 232 233 233 233 237 242 247 249 246 247 252 249 232 220 221 231 239 240 239 247 261 270 273 269 271 278 282 287 291 295 297 296 294 293 290 286 284 281 278 275 269 262 257 254 250 249 249 248 253 264 273 276 278 283 293 305 316 322 321 317 316 315 314 315 316 318 320 322 323 323 323 323 322 322
169 221 232 235 242 249 251 253 253 246 242 246 243 232 232 238 242 246 245 242 244 243 231 220 223 230 236 235 234 238 247 254 255 256 262 274 282 286 293 300 306 311 312 312 310 303 294 287 281 277 272 266 261 256 249 244 243 244 245 254 266 270 272 279 287 295 305 313 317 317 315 314 312 311 312 313 315 317 317 318 319 319 318 319 319
125 135 166 191 219 241 248 250 247 240 240 246 240 224 227 236 238 236 234 230 229 225 220 219 220 221 223 221 222 226 229 232 241 255 268 280 287 293 303 312 317 322 324 326 327 321 314 303 292 284 277 272 270 262 250 242 239 242 249 257 264 267 274 284 289 294 302 307 312 313 312 310 307 305 306 308 310 311 312 313 315 315 314 314 315
153 143 153 172 192 221 240 245 242 237 238 243 238 228 228 229 224 217 212 207 208 210 211 210 206 206 205 202 201 205 212 227 245 255 265 283 296 301 306 309 311 314 315 318 321 323 324 323 318 311 306 303 293 258 241 237 240 247 255 260 265 272 280 284 286 292 297 300 306 309 306 302 299 299 301 303 305 307 308 309 311 311 311 311 312
194 182 167 163 168 180 210 232 235 234 237 240 235 227 220 211 205 202 198 196 199 202 201 198 195 195 194 194 198 205 215 230 240 251 281 305 314 317 318 318 319 318 318 319 321 323 328 331 332 337 340 327 289 251 241 242 248 253 258 264 272 278 281 280 284 291 294 297 302 302 297 293 293 296 299 301 303 304 305 307 309 309 309 310 311
232 217 183 150 142 144 145 155 185 201 210 213 208 203 200 198 196 195 195 197 197 194 191 190 189 189 191 196 201 205 214 229 245 281 306 314 320 324 325 326 328 328 329 331 332 334 335 335 335 340 341 323 284 259 253 253 255 258 263 271 275 276 276 280 286 290 292 295 297 294 291 291 293 295 297 298 300 302 303 305 307 307 308 309 309
246 233 200 186 183 175 163 166 171 159 154 171 180 181 185 187 186 184 186 188 187 186 186 188 191 193 195 196 197 202 218 240 265 290 303 311 319 322 323 327 330 333 334 335 337 337 335 331 328 326 319 306 284 268 260 257 259 263 268 271 273 274 278 283 287 290 291 293 292 289 289 291 292 294 296 297 299 300 301 303 305 306 307 307 307
218 205 194 198 217 216 207 207 204 191 179 183 189 194 197 193 189 186 184 183 183 184 185 188 191 191 189 188 192 207 233 261 283 297 305 311 314 318 321 325 329 331 333 334 334 332 325 316 309 302 293 285 277 271 267 266 268 270 271 272 274 278 282 286 288 290 290 290 289 290 291 292 293 295 297 298 299 300 301 302 303 304 304 303 303
236 224 209 201 212 219 217 219 220 213 207 201 198 204 205 199 198 197 190 188 192 190 187 186 185 182 180 185 197 222 258 284 293 297 299 301 305 310 314 319 323 325 327 327 324 318 307 297 289 284 280 277 276 277 277 276 277 278 280 281 282 283 285 288 289 289 289 289 290 292 294 295 297 298 298 299 300 301 301 301 301 302 301 300 300
256 248 240 234 231 223 215 214 215 217 218 216 212 209 203 200 204 207 199 194 195 192 187 184 181 180 185 197 220 252 277 288 290 290 290 291 295 301 307 316 321 322 322 320 314 305 296 288 283 281 280 280 281 282 282 281 281 282 284 286 286 286 287 287 287 288 290 292 293 295 297 298 299 299 300 300 301 300 300 301 302 302 300 298 296
261 256 252 249 245 236 224 215 208 207 214 219 219 215 211 208 211 215 212 208 205 201 197 195 197 203 213 226 245 266 281 288 288 284 283 286 290 295 304 314 318 320 321 317 308 300 294 291 288 286 283 281 280 279 280 282 282 281 282 284 284 286 287 288 290 292 294 296 298 299 301 301 301 302 302 302 302 303 304 305 305 304 302 299 295
260 257 253 251 249 245 240 233 223 213 211 212 212 211 209 210 214 220 222 221 220 218 217 220 226 232 239 245 253 266 278 284 281 275 275 282 285 288 296 305 310 314 317 312 304 297 295 294 292 288 283 279 276 275 277 279 281 281 283 285 287 289 291 293 296 297 298 300 301 302 302 303 303 303 304 305 306 307 308 308 307 305 303 300 297
258 257 254 251 250 249 248 245 238 230 223 217 212 208 206 208 213 218 221 223 227 231 234 238 240 242 244 246 251 262 271 274 272 269 270 273 277 282 290 298 302 306 307 304 298 293 293 291 287 283 281 279 277 278 280 282 284 286 288 291 293 296 298 300 301 301 302 303 303 303 304 305 306 306 308 308 309 310 311 310 308 307 305 302 298
258 257 256 254 251 249 249 248 244 239 234 230 224 218 214 213 212 212 215 221 229 234 236 236 236 235 235 239 247 257 263 264 263 263 264 266 273 281 288 293 297 300 299 296 292 290 288 285 280 279 279 280 282 285 288 290 292 294 297 299 301 303 304 304 304 305 305 305 306 306 308 309 309 310 310 310 311 313 314 312 311 310 308 305 302
258 256 254 254 253 251 248 247 246 244 241 239 236 230 224 223 223 223 224 228 231 232 232 230 229 229 232 239 247 252 252 251 250 251 255 262 270 276 282 287 290 292 290 287 287 286 282 280 279 281 282 285 289 292 295 299 301 303 305 306 306 307 308 307 308 309 309 309 310 310 311 311 312 313 314 314 315 317 317 316 315 315 315 313 311
259 257 253 250 250 250 248 247 247 247 244 243 242 237 232 229 230 232 236 238 236 234 232 229 228 231 236 241 243 240 237 235 236 240 248 258 266 272 276 280 281 280 280 281 283 282 281 281 284 288 292 295 298 301 304 307 308 308 309 309 308 309 310 311 312 313 313 313 313 313 314 314 315 317 317 317 319 321 322 321 319 319 320 319 316
256 256 254 250 247 247 247 247 248 247 245 244 245 245 243 240 237 234 234 234 234 235 236 234 233 237 243 243 238 233 229 226 225 231 243 254 262 267 270 272 271 270 273 278 280 282 285 290 293 294 296 299 302 305 307 308 308 308 308 309 311 314 316 318 319 319 319 319 319 319 319 319 320 321 321 322 323 324 324 323 321 320 320 318 315
256 253 252 250 247 245 245 246 248 250 250 249 248 247 247 246 243 239 235 234 236 236 236 238 240 242 240 235 230 227 226 224 227 239 252 257 260 261 262 261 261 263 269 276 281 286 290 291 290 291 294 299 303 305 307 307 308 308 310 315 320 324 326 326 326 325 325 325 325 325 325 324 324 325 325 325 325 325 324 322 320 319 319 317 316
260 254 251 249 248 246 245 245 246 249 251 250 248 246 244 242 240 241 241 238 232 225 224 232 240 238 230 224 220 217 218 226 241 256 262 260 257 257 255 252 253 259 266 272 278 281 282 282 284 290 296 301 304 306 307 308 309 312 321 329 333 334 333 332 331 330 329 329 329 328 327 326 325 325 325 325 324 323 322 322 322 322 321 319 317
261 257 252 248 246 245 245 244 244 245 245 243 243 247 248 240 232 231 231 230 229 230 232 233 231 225 221 218 216 216 222 235 251 259 259 256 254 252 248 247 252 257 263 268 270 271 275 281 289 296 300 304 306 307 306 308 314 325 336 340 340 340 338 336 335 333 331 330 331 331 330 328 326 325 325 324 322 321 322 324 326 325 323 320 318
259 257 253 248 244 242 242 242 242 241 242 243 244 247 250 245 234 228 226 224 227 231 228 217 209 208 210 211 215 222 233 243 250 252 250 249 248 244 241 243 248 253 259 263 265 271 280 288 293 297 300 303 304 303 305 314 329 341 345 345 343 342 341 338 336 335 334 334 335 334 332 330 327 325 323 322 321 322 323 326 327 326 324 321 320
257 256 253 249 243 239 237 238 239 238 238 240 241 242 243 244 244 241 235 227 222 218 210 200 197 200 205 210 218 227 235 240 243 242 241 239 236 236 237 238 240 243 250 259 268 278 287 292 296 299 300 300 299 301 312 332 344 348 348 345 344 343 342 341 339 337 336 336 336 336 334 330 328 325 323 322 323 323 324 325 326 325 324 323 321
260 256 253 249 244 238 235 234 235 235 234 234 235 238 239 239 239 239 239 235 224 211 201 197 200 204 207 214 222 229 232 235 236 233 231 229 227 230 234 236 236 239 247 260 274 283 289 295 298 298 295 294 298 310 331 346 349 348 346 344 344 344 344 342 340 337 336 336 335 336 335 333 331 327 324 323 325 325 325 326 325 324 324 324 322
267 261 256 252 247 241 235 232 231 232 232 231 231 233 232 232 234 236 237 237 230 217 205 201 203 205 209 215 222 225 226 228 228 225 222 222 224 229 234 235 237 243 254 264 274 282 288 293 293 288 287 294 308 328 345 350 348 346 345 345 346 346 344 343 342 339 338 337 337 338 338 336 334 330 326 324 326 326 326 326 325 324 325 324 322
270 267 262 256 252 247 240 235 231 230 230 229 228 226 219 215 219 224 225 224 222 217 210 206 205 207 213 216 216 216 215 213 212 209 207 212 220 225 229 235 243 253 261 267 273 280 286 285 282 280 288 303 324 342 349 347 345 346 347 347 346 346 344 344 343 341 340 342 344 344 342 340 337 333 330 327 327 327 326 326 325 325 326 325 323
267 266 263 259 255 251 245 239 234 230 228 225 223 219 214 209 209 213 219 221 215 206 203 206 210 215 218 216 211 208 206 202 197 196 198 205 213 219 227 239 250 255 260 267 273 277 276 271 267 273 287 311 338 347 346 345 347 349 348 346 345 345 345 345 345 346 347 348 349 349 346 343 340 336 333 331 329 327 326 325 327 329 329 327 325
267 263 261 257 252 250 248 244 237 230 226 223 220 216 214 212 210 211 219 223 215 204 201 207 212 215 217 215 209 205 202 199 196 196 198 201 207 217 229 237 242 246 255 264 266 261 254 247 244 257 286 325 344 342 340 346 352 351 347 344 344 346 348 348 350 351 351 350 351 351 349 347 343 339 337 335 332 329 327 327 329 332 332 329 327
272 263 258 253 246 242 242 245 241 232 223 219 218 217 215 212 211 211 214 215 212 208 208 212 214 212 212 211 208 205 202 198 195 195 197 202 209 217 220 221 227 238 247 251 245 237 231 227 229 252 298 333 340 337 340 350 353 348 344 343 345 348 351 352 352 351 351 352 354 354 352 349 346 342 341 340 337 333 330 329 330 332 332 331 328
286 264 253 246 239 235 233 234 238 236 223 213 212 214 214 212 211 212 214 214 214 211 208 206 208 207 201 198 201 203 200 194 190 191 197 205 207 202 199 206 221 236 239 234 227 224 224 226 238 272 308 331 336 337 344 350 349 345 343 343 345 350 353 354 353 352 352 354 356 356 353 351 348 346 345 345 342 339 335 333 332 332 334 334 332
325 281 253 242 233 230 226 222 226 230 218 205 203 207 211 212 213 216 220 220 216 209 201 195 195 194 189 186 186 187 185 184 187 191 194 189 184 184 192 206 222 235 239 232 227 229 235 244 264 287 308 328 337 341 346 347 346 345 344 343 347 353 355 355 355 354 353 354 357 356 355 353 351 350 349 349 347 343 340 336 334 333 335 336 335
47 62 69 192 197 201 208 209 212 214 205 196 194 198 203 208 214 222 228 222 212 202 193 190 188 182 176 174 173 173 175 179 182 182 178 172 172 179 196 211 219 239 247 239 238 250 258 264 279 291 309 333 342 344 344 344 345 345 343 343 349 354 356 356 356 356 355 356 357 357 356 355 354 353 353 352 350 346 342 339 337 336 336 338 337
55 68 79 98 126 149 168 178 183 183 181 183 189 195 199 205 212 223 229 217 204 193 185 184 181 172 166 168 171 172 173 172 171 170 170 169 174 186 202 212 223 243 238 230 248 269 270 275 286 297 319 342 344 340 339 342 345 345 342 343 351 356 357 358 359 358 357 357 357 356 355 355 355 355 354 353 352 348 344 342 340 338 338 339 339
55 67 79 92 104 117 128 135 140 148 157 168 180 187 192 201 211 217 214 204 193 182 174 172 170 166 165 169 171 170 169 168 171 175 177 179 186 201 221 230 236 239 228 225 253 268 272 280 289 302 330 340 334 331 336 341 345 344 343 346 352 357 359 0 1 0 359 357 356 355 355 354 354 355 354 353 352 350 347 345 342 340 339 339 339
56 65 77 90 102 112 117 118 118 125 139 154 165 174 184 197 205 204 192 180 172 166 162 162 164 167 169 169 167 166 168 171 177 182 186 192 202 222 244 243 237 241 256 250 256 270 283 288 293 307 331 325 321 327 336 341 345 349 350 350 353 356 360 2 2 2 0 357 355 354 353 352 353 354 353 353 353 352 350 348 344 342 341 339 336
63 67 72 81 90 99 105 109 112 118 134 151 160 166 175 183 184 178 167 161 158 159 160 161 164 166 166 163 162 165 170 177 182 186 191 202 218 241 253 242 236 267 287 270 269 288 297 293 292 306 314 310 317 328 336 340 346 353 355 353 352 356 359 2 2 2 1 358 355 353 353 352 352 352 353 354 354 353 352 350 347 344 343 340 336
67 69 71 74 79 84 90 97 104 109 117 130 139 144 146 148 152 154 154 154 155 158 159 159 160 160 159 160 163 170 176 182 185 190 200 216 236 250 246 232 241 284 284 275 280 294 297 292 284 280 288 303 317 327 332 337 345 353 357 356 354 355 358 0 1 1 0 358 356 354 352 352 352 352 353 354 355 355 355 353 349 346 345 344 341
65 69 72 74 77 81 85 90 96 102 107 111 118 124 129 135 142 148 150 152 152 152 151 153 155 159 164 170 173 177 181 184 188 199 215 234 247 246 231 225 258 285 284 278 277 286 294 302 293 271 280 301 317 326 332 337 345 352 357 358 357 356 357 359 0 360 359 359 358 356 354 353 353 354 354 355 357 359 358 355 352 349 348 348 347
62 66 69 73 77 81 85 89 94 99 105 111 118 123 129 135 140 143 143 143 144 145 148 154 161 168 175 179 179 179 184 189 200 218 232 243 248 237 222 225 254 285 294 288 283 290 303 296 277 275 288 304 318 327 332 339 347 354 359 1 359 357 356 359 1 1 0 0 360 358 357 355 355 356 356 357 360 2 0 357 354 351 350 351 352
64 66 68 70 73 78 81 85 89 94 100 107 114 119 123 127 130 134 137 141 145 149 153 158 163 167 171 175 178 185 197 210 223 234 243 249 244 227 216 220 244 282 302 302 299 304 302 285 276 282 290 302 318 329 334 343 352 358 0 2 1 358 357 359 2 3 3 3 2 0 359 358 358 358 358 360 2 4 3 0 357 355 354 354 357